WA3JKB Weather Reports


time (UTC)temp
F
wind
direction
speed
knots
gust
knots
rain 1hr
in
rain 24hr
in
rain mn
in
humidity
%
barometer
mb
20260506212017 67 270 1.7 6.1 0.00 0.21 0.21 84 1008.2
20260506211017 67 248 1.7 5.2 0.00 0.21 0.21 84 1008.1
20260506210017 67 248 0.9 4.3 0.00 0.21 0.21 86 1008.0
20260506205018 66 0.0 2.6 0.00 0.21 0.21 87 1008.0
20260506204017 66 225 0.9 3.5 0.00 0.21 0.21 87 1008.1
20260506203017 65 248 0.9 2.6 0.00 0.21 0.21 88 1008.0
20260506202017 65 270 0.9 3.5 0.00 0.21 0.21 88 1007.9
20260506201017 64 293 0.9 2.6 0.00 0.21 0.21 89 1007.9
20260506200017 64 270 0.9 5.2 0.00 0.21 0.21 88 1008.0
20260506195017 64 203 0.9 3.5 0.00 0.21 0.21 90 1008.1
20260506194017 64 270 0.9 7.0 0.00 0.21 0.21 90 1008.3
20260506193017 63 270 1.7 9.6 0.00 0.21 0.21 90 1008.3
20260506192018 63 270 1.7 3.5 0.00 0.21 0.21 91 1008.2
20260506191017 62 248 1.7 7.0 0.00 0.21 0.21 91 1008.4
20260506190018 62 225 1.7 9.6 0.00 0.21 0.21 91 1008.5
20260506185017 62 248 2.6 7.0 0.00 0.21 0.21 92 1008.6
20260506184017 62 248 0.9 6.1 0.00 0.21 0.21 92 1008.7
20260506183017 62 248 4.3 13.0 0.00 0.21 0.21 92 1008.8
20260506182017 62 270 1.7 5.2 0.00 0.21 0.21 92 1008.9
20260506181018 61 315 1.7 5.2 0.00 0.21 0.21 92 1008.9
20260506180017 61 293 1.7 6.1 0.00 0.21 0.21 92 1008.9
20260506175017 61 270 2.6 11.3 0.00 0.21 0.21 92 1008.9
20260506174017 61 248 1.7 5.2 0.00 0.21 0.21 92 1009.0
20260506173016 61 293 1.7 5.2 0.00 0.21 0.21 92 1009.0
20260506172017 61 270 1.7 7.8 0.01 0.21 0.21 93 1009.0
20260506171017 61 270 1.7 7.0 0.01 0.21 0.21 93 1009.1
20260506170017 61 248 1.7 6.1 0.02 0.21 0.21 93 1009.2
20260506165017 61 248 1.7 7.8 0.03 0.21 0.21 93 1009.2
20260506164018 61 270 1.7 5.2 0.05 0.21 0.21 93 1009.1
20260506163016 61 225 1.7 10.4 0.07 0.21 0.21 93 1009.1
20260506162016 61 293 2.6 7.8 0.09 0.20 0.20 93 1009.2
20260506161017 61 270 1.7 6.1 0.11 0.20 0.20 93 1009.2
20260506160017 61 293 0.9 3.5 0.13 0.19 0.19 93 1009.7
20260506155016 61 270 0.9 6.1 0.14 0.18 0.18 93 1010.2
20260506154016 61 293 1.7 4.3 0.13 0.16 0.16 92 1010.4
20260506153017 61 270 0.9 5.2 0.12 0.14 0.14 92 1010.4
20260506152017 61 293 0.9 5.2 0.09 0.11 0.11 91 1010.4
20260506151017 61 248 0.9 4.3 0.08 0.09 0.09 90 1010.2
20260506150016 62 225 0.9 2.6 0.06 0.06 0.06 89 1010.0
20260506145017 62 293 0.9 5.2 0.04 0.04 0.04 89 1010.1
20260506144016 62 293 0.9 6.1 0.03 0.03 0.03 88 1010.2
20260506143016 62 270 0.9 3.5 0.02 0.02 0.02 88 1010.1
20260506142018 63 293 1.7 5.2 0.02 0.02 0.02 86 1010.2
20260506141016 63 248 0.9 4.3 0.01 0.01 0.01 83 1010.4
20260506140017 64 270 2.6 7.8 0.00 0.00 0.00 81 1010.2
20260506135016 64 270 1.7 11.3 0.00 0.00 0.00 80 1010.2
20260506134017 65 270 2.6 11.3 0.00 0.00 0.00 79 1010.2
20260506133016 65 293 0.9 4.3 0.00 0.00 0.00 79 1010.1
20260506132016 65 270 1.7 5.2 0.00 0.00 0.00 78 1010.3
20260506131016 65 293 1.7 4.3 0.00 0.00 0.00 77 1010.3
20260506130017 65 270 2.6 15.6 0.00 0.00 0.00 77 1010.4
20260506125017 65 248 1.7 8.7 0.00 0.00 0.00 77 1010.5
20260506124016 66 270 1.7 5.2 0.00 0.00 0.00 77 1010.6
20260506123016 66 293 1.7 6.1 0.00 0.00 0.00 77 1010.3
20260506122017 65 293 2.6 7.0 0.00 0.00 0.00 77 1010.4
20260506121016 65 270 2.6 9.6 0.00 0.00 0.00 77 1010.3
20260506120016 65 270 1.7 6.1 0.00 0.00 0.00 77 1010.1
20260506115016 65 315 2.6 10.4 0.00 0.00 0.00 78 1010.0
20260506114016 65 248 2.6 7.8 0.00 0.00 0.00 78 1010.1
20260506113022 65 270 3.5 9.6 0.00 0.00 0.00 78 1009.9
20260506112016 65 293 2.6 5.2 0.00 0.00 0.00 78 1010.0
20260506111018 65 270 1.7 4.3 0.00 0.00 0.00 78 1009.9
20260506110016 65 293 1.7 7.8 0.00 0.00 0.00 78 1010.0
20260506105016 65 293 1.7 7.0 0.00 0.00 0.00 78 1010.0
20260506104017 65 293 2.6 7.8 0.00 0.00 0.00 78 1009.9
20260506103017 65 293 1.7 5.2 0.00 0.00 0.00 77 1009.9
20260506102016 65 248 1.7 4.3 0.00 0.00 0.00 77 1009.9
20260506101016 65 270 2.6 7.0 0.00 0.00 0.00 76 1009.8
20260506100016 65 270 1.7 5.2 0.00 0.00 0.00 76 1009.9
20260506095016 66 293 1.7 8.7 0.00 0.00 0.00 75 1009.9
20260506094016 66 293 1.7 7.8 0.00 0.00 0.00 75 1009.9
20260506093017 66 293 1.7 5.2 0.00 0.00 0.00 74 1010.0
20260506092016 66 270 3.5 8.7 0.00 0.00 0.00 74 1009.9
20260506091016 66 270 2.6 10.4 0.00 0.00 0.00 74 1009.9
20260506090016 66 270 2.6 9.6 0.00 0.00 0.00 75 1010.0
20260506085016 66 270 1.7 7.8 0.00 0.00 0.00 75 1010.0
20260506084016 66 270 1.7 6.1 0.00 0.00 0.00 75 1010.0
20260506083016 66 270 0.9 4.3 0.00 0.00 0.00 76 1010.0
20260506082017 66 293 1.7 4.3 0.00 0.00 0.00 75 1010.1
20260506081016 66 293 1.7 7.0 0.00 0.00 0.00 75 1010.1
20260506073016 66 293 1.7 5.2 0.00 0.00 0.00 74 1010.4
20260506072016 66 293 2.6 13.0 0.00 0.00 0.00 74 1010.4
20260506071016 67 135 0.9 4.3 0.00 0.00 0.00 73 1010.5
20260506062016 67 293 1.7 4.3 0.00 0.00 0.00 70 1010.8
20260506061016 67 270 1.7 7.0 0.00 0.00 0.00 69 1010.8
20260506051017 67 293 0.9 4.3 0.00 0.00 0.00 66 1011.2
20260506045016 67 0.0 0.9 0.00 0.00 0.00 66 1011.2
20260506044015 67 293 0.9 4.3 0.00 0.00 0.00 65 1011.2
20260506043015 67 0.0 1.7 0.00 0.00 0.00 65 1011.3
20260506042015 68 293 0.9 1.7 0.00 0.00 0.00 64 1011.3
20260506041016 68 338 0.9 2.6 0.00 0.00 0.00 63 1011.2
20260506040016 69 248 0.9 3.5 0.00 0.00 0.00 61 1011.3
20260506035015 69 293 0.9 3.5 0.00 0.00 0.00 61 1011.3
20260506034015 69 248 0.9 4.3 0.00 0.00 0.00 60 1011.2
20260506033015 70 270 1.7 4.3 0.00 0.00 0.00 59 1011.1
20260506032015 70 293 1.7 5.2 0.00 0.00 0.00 59 1011.1
20260506031015 70 293 0.9 4.3 0.00 0.00 0.00 58 1011.1
20260506030015 70 293 2.6 7.0 0.00 0.00 0.00 58 1011.1
20260506025017 70 293 1.7 3.5 0.00 0.00 0.00 57 1011.1
20260506024016 71 293 1.7 4.3 0.00 0.00 0.00 56 1011.2
20260506023015 71 293 1.7 6.1 0.00 0.00 0.00 56 1011.3
20260506022015 71 293 1.7 6.1 0.00 0.00 0.00 55 1011.3
20260506021016 71 293 1.7 3.5 0.00 0.00 0.00 54 1011.1
20260506020015 72 293 0.9 3.5 0.00 0.00 0.00 53 1011.0
20260506015016 72 293 0.9 6.1 0.00 0.00 0.00 52 1010.8
20260506014015 72 293 0.9 3.5 0.00 0.00 0.00 52 1010.9
20260506013015 72 270 1.7 7.0 0.00 0.00 0.00 51 1010.8
20260506012015 73 293 1.7 5.2 0.00 0.00 0.00 50 1010.7
20260506011015 73 293 1.7 4.3 0.00 0.00 0.00 49 1010.5
20260506010015 74 113 1.7 11.3 0.00 0.00 0.00 48 1010.4
20260506005015 74 180 1.7 7.8 0.00 0.00 0.00 47 1010.3
20260506004016 74 293 2.6 6.1 0.00 0.00 0.00 46 1010.3
20260506003015 75 293 1.7 6.1 0.00 0.00 0.00 46 1010.2
20260506002015 75 315 0.9 2.6 0.00 0.00 0.00 44 1010.1
20260506001016 76 270 1.7 4.3 0.00 0.00 0.00 43 1010.0
20260506000015 76 293 0.9 5.2 0.00 0.00 0.00 42 1009.9
20260505235015 77 248 1.7 12.2 0.00 0.00 0.00 41 1009.8
20260505234015 77 270 1.7 7.0 0.00 0.00 0.00 41 1009.7
20260505233017 77 180 2.6 7.8 0.00 0.00 0.00 40 1009.6
20260505232017 78 248 3.5 9.6 0.00 0.00 0.00 40 1009.7
20260505231017 78 270 2.6 9.6 0.00 0.00 0.00 40 1009.6
20260505230017 78 270 3.5 8.7 0.00 0.00 0.00 39 1009.6
20260505225017 79 270 3.5 11.3 0.00 0.00 0.00 39 1009.5
20260505224015 79 270 1.7 7.0 0.00 0.00 0.00 40 1009.5
20260505223017 79 270 2.6 7.0 0.00 0.00 0.00 39 1009.6
20260505222017 79 270 3.5 9.6 0.00 0.00 0.00 39 1009.6
20260505221017 80 270 3.5 8.7 0.00 0.00 0.00 38 1009.6
20260505220017 81 248 3.5 12.2 0.00 0.00 0.00 37 1009.5
20260505215018 81 225 2.6 8.7 0.00 0.00 0.00 37 1009.6
20260505214017 81 293 3.5 11.3 0.00 0.00 0.00 37 1009.4
20260505213017 81 293 3.5 14.8 0.00 0.00 0.00 37 1009.5